Flag Weather past 2 weeks in Jakobstad, Finland

Now
36 °F

Partly cloudy.


Feels Like: 29 °F
Forecast: 36 / 38 °F
Wind: 9 mph from South

Location: Kruunupyy

Current Time: Nov 29, 2014 at 1:00:43 AM

Latest Report: Nov 29, 2014 at 12:20 AM


Visibility: N/A

Pressure: 30.45 "Hg

Humidity: 93%

Dew point: 34 °F

Location of JakobstadLocation

Historic Weather in Jakobstad — Graph

°F

Jakobstad temperature yesterday

Maximum temperature yesterday: 36 °F (at 12:20 AM)
Minimum temperature yesterday: 30 °F (at 9:50 AM)
Average temperature yesterday: 34 °F

Past Weeks' High & Low Weather Summary

 TemperatureHumidityPressure
High39 °F (Nov 25, 7:20 PM)100% (Nov 14, 7:20 AM)30.60 "Hg (Nov 14, 7:20 AM)
Low25 °F (Nov 17, 11:50 AM)80% (Nov 13, 11:50 PM)30.01 "Hg (Nov 25, 4:20 AM)
Average31 °F96%30.34 "Hg
* Reported Nov 13 11:50 PM — Nov 28 11:50 PM, Jakobstad, Weather by CustomWeather, © 2014

Note: Actual official high and low records may vary slightly from our data, if they occured in-between our weather recording intervals... More about our weather records

Advertising

Jakobstad weather history for previous 24 hours

 ConditionsComfort  
Time TempWeatherWind HumidityBarometerVisibility
11:50 PM
Nov 28
36 °FPartly cloudy.7 mph93%30.45 "HgN/A
11:20 PM36 °FPassing clouds.8 mph93%30.45 "HgN/A
10:50 PM36 °FPassing clouds.9 mph93%30.45 "HgN/A
10:20 PM36 °FPassing clouds.9 mph93%30.45 "HgN/A
9:50 PM36 °FClear.9 mph93%30.45 "Hg10 mi
9:20 PM34 °FPassing clouds.8 mph93%30.45 "HgN/A
8:50 PM34 °FClear.8 mph93%30.45 "Hg10 mi
8:20 PM34 °FPassing clouds.8 mph93%30.45 "HgN/A
7:50 PM34 °FClear.8 mph93%30.42 "Hg10 mi
7:20 PM34 °FClear.8 mph93%30.42 "Hg10 mi
6:50 PM34 °FClear.8 mph93%30.42 "Hg10 mi
6:20 PM36 °FClear.9 mph87%30.42 "Hg10 mi
5:50 PM34 °FClear.9 mph93%30.42 "Hg10 mi
5:20 PM36 °FClear.8 mph87%30.42 "Hg10 mi
4:50 PM34 °FClear.8 mph93%30.42 "Hg10 mi
4:20 PM34 °FClear.9 mph93%30.39 "Hg10 mi
3:50 PM34 °FClear.9 mph93%30.39 "Hg10 mi
3:20 PM34 °FClear.9 mph93%30.39 "Hg10 mi
2:50 PM34 °FSunny.8 mph93%30.39 "Hg10 mi
2:20 PM36 °FPassing clouds.10 mph87%30.39 "HgN/A
1:50 PM34 °FSunny.9 mph93%30.39 "Hg10 mi
1:20 PM36 °FPassing clouds.10 mph87%30.39 "HgN/A
12:50 PM34 °FSunny.9 mph93%30.39 "Hg10 mi
12:20 PM36 °FPassing clouds.7 mph87%30.39 "HgN/A
11:50 AM36 °FPassing clouds.10 mph87%30.36 "HgN/A
11:20 AM34 °FSunny.8 mph93%30.36 "Hg10 mi
10:50 AM32 °FSunny.8 mph93%30.36 "Hg10 mi
10:20 AM32 °FSunny.9 mph93%30.36 "Hg10 mi
9:50 AM30 °FPassing clouds.7 mph93%30.36 "HgN/A
9:20 AM32 °FPassing clouds.7 mph93%30.33 "HgN/A
8:20 AM32 °FPassing clouds.7 mph93%30.33 "HgN/A
7:50 AM32 °FPassing clouds.7 mph93%30.33 "HgN/A
7:20 AM34 °FPassing clouds.7 mph93%30.33 "HgN/A
6:50 AM36 °FOvercast.6 mph93%30.33 "HgN/A
6:20 AM36 °FPartly cloudy.5 mph93%30.33 "HgN/A
5:20 AM36 °FMostly cloudy.7 mph93%30.30 "HgN/A
4:50 AM36 °FPassing clouds.6 mph93%30.30 "HgN/A
4:20 AM36 °FLow clouds.8 mph93%30.30 "HgN/A
3:50 AM36 °FLow clouds.6 mph93%30.30 "HgN/A
3:20 AM36 °FMostly cloudy.6 mph93%30.30 "HgN/A
2:50 AM36 °FLow clouds.3 mph87%30.30 "Hg4 mi
2:20 AM36 °FMostly cloudy.3 mph87%30.30 "HgN/A
1:50 AM36 °FMostly cloudy.6 mph93%30.30 "HgN/A
1:20 AM36 °FLow clouds.3 mph93%30.30 "HgN/A
Weather by CustomWeather, © 2014

See weather overviewHow to use our weather pages